Location: D?u?ec
(50.3995°N, 19.7110°E)
Time: 15:02:17
(UTC+00:00)

Daily predictions for brighter satellites

Satellite Brightness Start Highest point End
(mag) Time Altitude Azimuth Time Altitude Azimuth Time Altitude Azimuth
Cosmos 676 Rocket 4.2 19:28:07 10° S 19:33:18 55° ESE 19:38:29 10° NNE
SeaSat 1 2.6 19:29:11 10° SSE 19:34:05 79° WSW 19:39:02 10° NNW
Cosmos 2278 3.8 19:28:50 10° NNW 19:34:36 87° ENE 19:40:19 10° SSE
Cosmos 1190 Rocket 4.1 19:31:39 10° SSW 19:36:58 90° ESE 19:42:19 10° NNE
USA 234 3.4 19:30:58 10° ENE 19:37:24 55° SE 19:43:47 10° SW
MOS 1 Rocket 3.8 19:36:06 10° SSE 19:41:26 65° ENE 19:46:41 10° N
Cosmos 1707 2.6 19:38:45 10° S 19:42:22 83° W 19:46:00 10° N
Cosmos 2237 4.3 19:42:11 10° NNW 19:47:58 85° WSW 19:53:42 10° SSE
Meteor 2-10 Rocket 3.9 19:43:57 10° N 19:49:33 59° ENE 19:54:53 10° SSE
Cosmos 1400 Rocket 3.1 19:47:50 10° S 19:51:34 46° E 19:55:16 10° NNE
Cosmos 2219 Rocket 3.4 19:46:31 10° NNW 19:51:38 33° NE 19:56:43 10° ESE
SL-4 R/B 2.0 19:47:51 10° W 19:51:40 84° NNW 19:55:47 10° ENE
Cosmos 1455 4.4 19:51:46 10° NE 19:52:58 11° ENE 19:54:09 10° E
Cosmos 841 Rocket 3.6 19:50:34 10° NNW 19:55:53 85° ENE 20:01:09 10° SSE
SPOT 5 3.7 19:52:45 10° S 19:56:48 41° W 20:00:59 10° NNW
Landsat 5 4.3 19:54:37 10° NNE 19:58:12 31° E 20:01:50 10° SSE
ERS-1 Rocket 3.3 19:53:21 10° S 19:58:21 67° WSW 20:03:23 10° NNW
Orbus 7S? 4.1 19:53:38 10° WSW 19:58:42 55° NNW 20:01:36 10° NE
Cosmos 1707 Rocket 4.4 19:54:52 10° SSE 19:58:52 34° E 20:02:54 10° NNE
S3M 4.1 19:56:40 10° N 20:03:06 88° W 20:09:25 10° S
ATLAS CENTAUR R/B 2.4 20:00:34 10° SSE 20:03:10 20° ESE 20:05:51 10° ENE
SJ 16-02 2.9 20:02:46 11° SE 20:05:36 19° E 20:08:39 10° NE
Spot 2 Rocket 3.7 20:00:39 10° S 20:05:42 76° WSW 20:10:50 10° NNW
ARIANE 5 R/B 4.3 20:02:35 10° ESE 20:05:52 21° ENE 20:09:08 10° NNE
Cosmos 1953 4.0 20:06:33 10° NNE 20:09:28 20° ENE 20:12:21 10° ESE
Meteor 1-15 Rocket 4.3 20:04:38 10° NNW 20:10:13 78° W 20:15:47 10° S
Meteor 1-4 Rocket 4.0 20:09:43 12° ESE 20:11:09 15° E 20:13:02 10° NE
SL-27 R/B 3.3 20:10:27 14° SE 20:11:57 21° ESE 20:14:10 10° NE
Aureole 3 4.5 20:09:43 12° SSE 20:12:45 31° E 20:16:54 10° NNE
Cosmos 1441 Rocket 4.4 20:10:01 10° NNW 20:13:20 34° W 20:16:39 10° SSW
Cosmos 1655 Rocket 4.1 20:07:37 10° S 20:13:55 66° E 20:20:17 10° NNE
Meteor 1-23 Rocket 4.3 20:08:58 10° S 20:14:35 71° E 20:20:19 10° NNE
Cosmos 2360 Rocket 2.3 20:09:57 10° NNW 20:15:40 74° ENE 20:20:47 13° SE
SL-08 ROCKET BODY 4.5 20:11:39 10° S 20:17:48 88° E 20:23:54 10° N
ATLAS 2AS CENTAUR R/B 2.8 20:10:53 10° NW 20:17:50 80° NE 20:24:07 12° SE
Spot 1 4.4 20:13:49 10° NNE 20:18:13 54° ESE 20:22:50 10° S
Cosmos 1733 Rocket 3.2 20:14:14 10° N 20:18:38 67° ENE 20:22:29 13° SSE
Cosmos 2266 Rocket 4.1 20:12:27 10° S 20:18:47 85° W 20:25:15 10° N
Cosmos 1300 2.5 20:16:25 10° N 20:20:00 83° E 20:23:03 14° SSE
Cosmos 2333 Rocket 2.3 20:18:18 10° NNW 20:24:05 78° ENE 20:29:07 14° SE
SL-16 R/B 2.7 20:19:06 10° NW 20:24:37 54° WSW 20:29:51 11° S
H-2A R/B 4.4 20:23:41 10° ESE 20:26:50 20° ENE 20:29:58 10° NNE
Ariane Rocket 3.7 20:25:28 10° S 20:30:24 50° W 20:35:22 10° NNW
Cosmos 2082 Rocket 3.9 20:25:35 10° WSW 20:30:49 36° NW 20:36:05 10° NNE
Atlas Centaur 2 4.4 20:26:30 10° SW 20:31:17 17° S 20:34:35 13° SSE
Cosmos 807 4.4 20:29:19 14° S 20:32:03 57° E 20:35:02 10° NNE
Cosmos 2228 Rocket 3.1 20:28:25 10° S 20:32:58 82° E 20:37:35 10° NNE
SL-14 R/B 3.1 20:29:41 10° S 20:33:28 88° E 20:37:18 10° N
MetOp-A 4.1 20:29:06 13° SSE 20:33:43 90° WSW 20:39:01 10° NNW
RESURS DK-1 2.9 20:32:19 10° NW 20:36:15 48° WSW 20:39:23 15° S
Okean 1-7 3.8 20:36:48 16° SSE 20:39:42 37° E 20:43:41 10° NNE
Cosmos 1850 Rocket 4.0 20:37:24 10° SSW 20:42:38 81° ESE 20:47:52 10° NNE
Cosmos 1346 Rocket 3.0 20:39:34 10° NNW 20:43:25 65° W 20:46:26 16° S
Terra 3.3 20:40:44 10° SSW 20:44:50 30° W 20:49:00 10° NNW
USA 281 3.4 20:42:02 14° SE 20:47:45 71° ENE 20:54:18 10° NNW
Meteor 1-16 Rocket 4.4 20:42:21 10° N 20:48:18 82° E 20:53:04 17° SSE
Cosmos 2237 Rocket 4.2 20:44:07 10° NNW 20:48:32 22° NE 20:52:55 10° E
Cosmos 2322 4.4 20:43:50 10° NNW 20:49:20 47° NE 20:54:15 13° SE
Timation 1 Rocket 4.4 20:45:28 10° SSW 20:51:26 83° WNW 20:57:26 10° NNE
Cosmos 1242 Rocket 3.7 20:52:09 17° ESE 20:52:43 18° E 20:54:42 10° NE
OPS 8737 4.0 20:50:52 10° NW 20:53:48 78° NE 20:55:36 22° SE
EXPRESS MD2 1.7 20:52:36 10° WSW 20:55:00 69° S 20:56:56 12° E
Cosmos 2333 4.3 20:49:33 10° NNW 20:55:21 82° WSW 20:59:44 18° SSE
Cosmos 1758 4.5 20:54:13 10° NNW 20:57:49 36° W 21:01:09 11° SSW
ALOS 2 4.2 20:55:20 11° ESE 20:58:36 25° ENE 21:02:11 10° N
Cosmos 1741 Rocket 4.2 20:56:34 10° SSW 21:01:51 78° WNW 21:07:11 10° NNE
CZ-2C R/B 3.9 20:58:19 10° NNE 21:02:39 51° E 21:05:28 20° S
Cosmos 968 Rocket 3.4 20:59:48 10° SSW 21:04:56 86° ESE 21:10:10 10° NNE
Cosmos 2322 Rocket 3.1 21:03:07 10° NW 21:08:22 40° WSW 21:12:36 15° S
Cosmos 1814 Rocket 4.2 21:03:20 10° NNW 21:08:36 69° WSW 21:12:20 20° S
Cosmos 1356 Rocket 4.3 21:06:37 10° SSW 21:10:40 47° WNW 21:14:46 10° N
DNEPR-1 R/B 4.4 21:04:14 10° NW 21:11:09 80° SW 21:15:13 20° SSE
Spot 4 4.5 21:10:07 18° SE 21:13:25 47° ENE 21:18:02 10° N
Cosmos 1703 Rocket 3.8 21:11:39 22° SSE 21:14:22 55° E 21:18:44 10° NNE
Cosmos 1862 Rocket 4.2 21:11:25 10° SSW 21:15:41 52° WNW 21:20:02 10° N
Cosmos 2297 Rocket 4.0 21:16:08 12° ESE 21:18:15 14° E 21:21:08 10° ENE
USA 234 3.6 21:14:03 10° ENE 21:20:33 69° NNW 21:27:03 10° WSW
Cosmos 1932 4.5 21:14:58 10° SSW 21:21:13 63° SE 21:27:25 10° NE
Cosmos 2208 Rocket 4.4 21:16:38 10° NNW 21:21:47 56° ENE 21:25:27 19° SE
Okean 2 3.3 21:19:14 21° S 21:21:54 87° WNW 21:25:56 10° N
PSLV R/B 3.9 21:20:22 10° NNE 21:24:20 61° E 21:26:30 25° S
BREEZE-M DEB (TANK) 3.8 21:08:23 10° W 21:24:51 83° S 21:28:59 10° E
Cosmos 1455 2.1 21:24:21 10° NNW 21:27:50 66° W 21:29:35 27° S
COSMOS 2428 2.9 21:23:56 10° NNW 21:29:39 71° ENE 21:33:47 19° SE
SL-4 R/B 2.1 21:26:37 10° W 21:30:36 79° N 21:34:50 10° E
COSMOS 2455 3.9 21:29:10 20° SSE 21:31:48 27° ESE 21:36:44 10° NE
Cosmos 2219 Rocket 2.5 21:30:20 10° NW 21:35:54 57° WSW 21:39:27 22° S
ATLAS CENTAUR R/B 1.9 21:37:07 10° WSW 21:40:31 48° NW 21:44:04 10° NNE
ARIANE 5 R/B 3.0 21:39:26 23° SSW 21:41:56 52° W 21:46:11 10° NNW
Cosmos 1315 Rocket 3.4 21:39:54 17° SSW 21:42:46 54° WNW 21:46:43 10° N
SJ 16-02 2.0 21:39:28 11° SW 21:43:33 53° WNW 21:47:48 10° NNE
Meteor 1-4 Rocket 3.8 21:41:42 14° SW 21:43:46 28° WNW 21:46:27 10° N
SL-27 R/B 4.4 21:42:41 10° WSW 21:44:50 20° WNW 21:47:01 10° N
Cosmos 1953 3.2 21:41:52 10° NNW 21:45:28 39° W 21:47:31 21° SSW
Cosmos 1745 Rocket 4.0 21:45:23 21° S 21:49:47 80° E 21:56:11 10° NNE
Cosmos 1241 Rocket 4.4 21:43:36 10° SW 21:49:48 89° NW 21:56:06 10° NE
Nadezhda 1 Rocket 4.1 21:51:08 10° NNW 21:57:27 71° W 22:01:33 22° S
Cosmos 2360 Rocket 3.9 21:54:52 10° NW 21:59:04 22° W 22:02:32 13° SW
H-2A R/B 2.9 21:59:14 27° S 22:01:24 56° WSW 22:05:38 10° NNW
GP-B 3.9 21:57:26 10° N 22:01:39 45° W 22:04:27 19° SW
Cosmos 1486 Rocket 4.3 22:01:40 26° S 22:04:19 50° ESE 22:09:21 10° NNE
Cosmos 2333 Rocket 3.9 22:03:35 10° NW 22:07:44 21° W 22:11:07 13° SW
ATLAS 2AS CENTAUR R/B 3.8 22:02:31 10° WNW 22:08:03 27° WSW 22:11:32 18° SSW
Cosmos 1782 Rocket 4.0 22:07:08 10° NNW 22:11:21 50° W 22:13:29 26° SSW
Cosmos 1825 3.9 22:13:44 16° ESE 22:14:46 18° E 22:17:07 10° NE
BREEZE-M DEB (TANK) 3.8 22:11:53 10° W 22:15:16 83° S 22:26:18 10° E
Cosmos 1408 2.5 22:22:39 37° SW 22:23:31 54° WNW 22:26:28 10° N
Cosmos 1242 Rocket 4.1 22:23:20 15° WSW 22:24:39 20° WNW 22:26:50 10° NNW
SL-16 R/B 3.8 22:19:46 10° NNW 22:24:52 32° NE 22:29:56 10° ESE
BREEZE-M DEB (TANK) 2.0 22:22:17 10° WNW 22:25:21 53° N 22:27:20 10° E
BlueWalker 3 2.1 22:24:27 36° S 22:25:26 46° SSE 22:29:02 10° ENE
Cosmos 405 Rocket 2.8 22:24:37 10° N 22:28:22 67° ENE 22:29:56 32° SSE
Cosmos 2151 Rocket 3.9 22:25:38 10° N 22:30:00 58° ENE 22:32:18 26° SSE
Cosmos 1300 Rocket 4.5 22:27:55 10° NNW 22:31:54 37° W 22:33:55 23° SW
USA 281 4.4 22:28:55 17° SSW 22:32:45 28° WSW 22:38:20 10° NW
Cosmos 546 4.5 22:29:10 10° W 22:33:03 76° SSW 22:36:55 10° ESE
Cosmos 2237 Rocket 2.2 22:27:43 10° NNW 22:33:26 86° ENE 22:37:15 22° SSE
Meteor 1-24 Rocket 3.8 22:30:01 26° S 22:33:29 78° E 22:39:09 10° NNE
H-2A R/B 2.4 22:29:26 10° NNE 22:33:36 49° E 22:35:22 30° SSE
ALOS 2 3.2 22:32:43 27° SSW 22:34:43 44° W 22:38:57 10° NNW
Okean 2 Rocket 3.3 22:32:39 10° N 22:37:06 63° ENE 22:39:28 26° SSE
NOSS 8 (E) 4.3 22:35:35 29° SW 22:37:18 84° SE 22:40:24 10° NE
Cosmos 371 Rocket 3.2 22:38:27 27° SSW 22:41:04 84° ESE 22:45:55 10° NNE
Cosmos 2227 Rocket 3.2 22:38:36 22° SSE 22:41:16 33° ESE 22:46:16 10° NE
CZ-4C R/B 2.0 22:42:24 28° SSW 22:44:45 61° SE 22:50:23 10° NE
Cosmos 1703 3.4 22:44:41 31° SW 22:46:14 58° WNW 22:49:54 10° N
BREEZE-M DEB (TANK) 3.4 22:45:04 31° SW 22:46:17 55° SSE 22:52:16 10° E
Cosmos 1980 3.7 22:40:37 10° NNW 22:46:17 75° WSW 22:49:45 24° SSE
Cosmos 1709 Rocket 4.4 22:45:07 20° SSW 22:49:37 59° WNW 22:55:55 10° N
Cosmos 1674 Rocket 3.7 22:49:36 30° SSE 22:51:37 63° E 22:55:56 10° NNE
Cosmos 2084 Rocket 4.3 22:51:58 28° SSE 22:53:04 33° SE 22:56:50 10° ENE
Cosmos 1378 Rocket 3.5 22:51:43 31° S 22:53:44 78° E 22:58:09 10° NNE
Cosmos 2221 Rocket 3.8 22:52:51 29° SSE 22:54:59 63° E 22:59:24 10° NNE
NOSS 0 Rocket 4.4 22:49:30 10° NW 22:55:24 46° WSW 22:58:44 25° S
Sich 1 Rocket 3.5 22:54:47 10° NNW 22:59:13 81° W 23:01:19 30° S
Cosmos 2184 Rocket 4.2 22:57:04 23° S 23:01:04 67° E 23:07:25 10° NNE
Cosmos 2297 Rocket 2.2 22:57:54 25° SSW 23:01:21 79° ESE 23:07:01 10° NNE
Meteor 2-5 Rocket 4.0 22:57:47 23° SSW 23:01:37 68° WNW 23:07:28 10° N
USA 234 4.2 22:56:53 10° ENE 23:03:09 50° N 23:09:25 10° WNW
GEOS 3 Rocket 3.7 22:58:10 10° NE 23:03:19 61° SE 23:06:13 25° SSW
Cosmos 1025 Rocket 4.0 23:01:49 22° SE 23:04:02 36° E 23:08:00 10° NNE
Cosmos 1892 2.4 23:06:43 38° S 23:07:57 85° E 23:11:29 10° N
SL-4 R/B 2.2 23:05:21 10° WNW 23:09:20 49° SSW 23:12:03 20° SE
COSMOS 2428 4.2 23:09:01 10° NW 23:13:21 23° WSW 23:15:45 17° SW
CENTAUR R/B 3.1 23:12:45 23° S 23:15:47 40° ESE 23:22:10 10° NE
COSMOS 2455 3.1 23:12:16 15° SW 23:17:15 69° NW 23:23:19 10° NE
Cosmos 2154 Rocket 4.1 23:13:33 23° S 23:17:35 72° E 23:23:51 10° NNE
Cosmos 1538 Rocket 4.2 23:13:47 10° NNW 23:18:59 71° ENE 23:23:15 16° SSE
ATLAS CENTAUR R/B 4.1 23:17:08 10° NW 23:19:02 14° NNW 23:20:58 10° N
Cosmos 1503 Rocket 4.3 23:15:43 21° SW 23:19:16 67° WNW 23:24:35 10° NNE
Aureole 1 Rocket 4.4 23:18:43 17° SE 23:20:15 22° E 23:23:31 10° NE
Cosmos 1777 Rocket 4.1 23:18:39 23° SSW 23:22:01 74° WNW 23:27:20 10° NNE
Cosmos 332 Rocket 3.8 23:31:18 25° SSW 23:34:10 86° WNW 23:39:06 10° NNE
Cosmos 2263 Rocket 3.2 23:33:49 18° SSE 23:37:11 35° ESE 23:42:10 10° NE
Okean 1 Rocket 3.5 23:36:48 10° NNW 23:40:59 47° W 23:43:06 26° SSW
Resurs 1-4 Rocket 3.9 23:38:38 10° NE 23:42:46 23° E 23:46:52 10° SE
Cosmos 1825 3.0 23:47:12 23° WSW 23:48:42 34° WNW 23:51:53 10° N
Helios 1A Rocket 2.6 23:46:37 24° SSE 23:48:49 88° WSW 23:52:40 10° NNW
